www.pogodaiklimat.ru

Погода и климат >> Архив погоды >> Украина >> Киев


АРХИВ ПОГОДЫ в Киеве

Время (UTC), дата Ветер
(напр.,м/с)
 
Видим.   Явления Облачность Т
(С)
Тd
(С)
f
(%)
Тe
(С)
Тes
(С)
Комфортность P
(гПа)
Po
(гПа)
Тmin
(С)
Tmax
(С)
R
(мм)
S
(см)
18 20.03 З 2 20 км 9/0
[Ac trans]
+5.2 -0.9 65 +3 +3 по сезону 1010.8 990.3 +7.8
21 20.03 СЗ 1 20 км 10/0
[Ac und]
+5.0 +1.8 80 +4 +4 тепло 1011.5 991.0
00 21.03 СЗ 2 10 км ясно +3.8 +1.5 85 +1 +1 по сезону 1011.6 991.0
03 21.03 СЗ 1 10 км ясно +2.4 +0.3 86 +1 +1 по сезону 1012.7 992.0
06 21.03 З 1 20 км 8/0
[Ac trans Cc]
+3.2 +0.9 85 +2 +3 по сезону 1013.7 993.0 +1.0
09 21.03 ЮЗ 3 20 км 9/0
[Ac As]
+7.6 +1.2 64 +5 +8 тепло 1013.9 993.5
12 21.03 ЮЗ 4 20 км 10/5 300 м
[Cb cap Ac As]
+9.6 +1.7 58 +7 +8 тепло 1013.6 993.4
15 21.03 ЮЗ 3 20 км 9/0
[Ac As]
+10.4 +2.8 59 +9 +9 тепло 1013.6 993.4
18 21.03 Ю 2 20 км ясно +7.8 +3.9 76 +6 +6 тепло 1014.8 994.4 +11.4
21 21.03 Ю 2 10 км 8/0
[Ac lent]
+6.6 +3.8 82 +4 +4 тепло 1015.8 995.3
00 22.03 ЮЗ 3 20 км 10/0
[Ac und]
+8.8 +3.8 71 +6 +6 тепло 1016.4 996.1
03 22.03 ЮЗ 2 20 км 10/0
[Ac und]
+8.7 +3.1 68 +7 +7 тепло 1016.8 996.5
06 22.03 ЮЗ 3 20 км 9/4 1000 м
[Sc Ac lent]
+9.5 +2.2 60 +8 +8 тепло 1017.7 997.4 +6.5
09 22.03 ЮЗ 5 20 км 9/0
[Ac trans]
+15.5 +4.1 47 +14 +17 тепло 1017.6 997.7
12 22.03 ЮЗ 5 20 км 3/1 1000 м
[Cu hum Ci fib]
+17.6 +4.9 43 +17 +20 тепло 1016.6 996.9
15 22.03 ЮЗ 5 20 км ясно +16.3 +5.0 47 +15 +16 тепло 1016.0 996.2
18 22.03 Ю 3 20 км 9/0
[Ac trans]
+13.5 +5.2 57 +13 +13 тепло 1016.9 996.9 +18.0
21 22.03 ЮЗ 2 20 км 4/0
[Cs]
+12.1 +4.4 59 +11 +11 тепло 1017.4 997.3
00 23.03 З 3 20 км 10/0
[Ac und]
+11.1 +4.5 64 +9 +9 тепло 1018.4 998.2
03 23.03 С 4 10 км слабый ливневой дождь 10/10 630 м
[Cb cap]
+8.6 +6.9 89 +5 +5 тепло 1020.2 999.8
06 23.03 СВ 4 4000 м в посл. час ливневой дождь 10/10 150 м
[Cb cap]
+5.8 +5.1 95 +2 +2 по сезону 1022.6 1001.9 +5.8 2
09 23.03 СВ 2 4000 м дымка {ливн. осадки} 10/10 270 м
[St]
+6.4 +5.0 91 +4 +4 по сезону 1023.9 1003.3
12 23.03 СВ 3 20 км {ливн. осадки} 10/10 360 м
[St]
+7.2 +4.9 85 +4 +4 по сезону 1024.5 1003.9
15 23.03 В 1 20 км 10/10 700 м
[Sc]
+8.3 +4.9 79 +8 +8 тепло 1024.6 1004.1
18 23.03 штиль 0 20 км {ливн. осадки} 10/10 900 м
[Sc]
+8.1 +4.9 80 +7 +7 тепло 1024.6 1004.1 +8.5 0.4
21 23.03 Ю 1 4000 м дымка {дождь} 10/10 660 м
[Sc]
+7.4 +6.1 91 +6 +6 тепло 1023.7 1003.1
00 24.03 Ю 3 4000 м дымка {дождь} 10/10 300 м
[St]
+7.1 +6.0 93 +4 +4 тепло 1022.6 1002.0
03 24.03 ЮЗ 3 200 м туман ?/? +7.0 +7.0 100 +4 +4 тепло 1020.7 1000.2
06 24.03 З 3 4000 м в посл. час туман 10/10 270 м
[St]
+7.7 +7.1 96 +5 +5 тепло 1018.7 998.3 +6.7 0.3
09 24.03 З 5 10 км 10/10 360 м
[St]
+10.2 +7.0 81 +7 +7 тепло 1017.7 997.5
12 24.03 СЗ 4 10 км 10/10 400 м
[St]
+10.6 +6.6 76 +8 +8 тепло 1017.5 997.3
15 24.03 С 5 4000 м слабый дождь 10/10 330 м
[Sc]
+9.6 +6.8 83 +6 +6 по сезону 1018.2 997.9
18 24.03 С 4 10 км {дождь} 8/3 630 м
[Sc Ac trans]
+6.5 +2.9 78 +3 +3 по сезону 1021.6 1001.0 +10.8 0.0
21 24.03 С 3 20 км 8/8 1440 м
[Sc]
+5.6 +2.1 78 +2 +2 по сезону 1022.8 1002.1
00 25.03 С 4 20 км ясно +3.9 +1.3 83 -1 -1 по сезону 1022.9 1002.1
03 25.03 С 3 20 км ясно +2.5 -2.1 72 -1 -1 по сезону 1023.7 1002.8
06 25.03 С 3 20 км ясно +2.9 -4.8 57 -1 +2 по сезону 1023.9 1003.0 +1.7
09 25.03 С 3 20 км 9/0
[Ac As Cs]
+5.9 -8.7 34 +4 +8 по сезону 1022.9 1002.2
12 25.03 С 4 20 км 9/0
[Ac cast Cs]
+6.8 -10.1 29 +4 +8 по сезону 1020.3 999.7
15 25.03 С 3 20 км 9/3 300 м
[Cb cap As trans]
+5.2 -4.9 48 +2 +3 по сезону 1018.1 997.5
18 25.03 ЮЗ 1 10 км 8/0
[Ac trans]
+2.6 -0.1 82 +1 +1 по сезону 1016.9 996.1 +7.4
21 25.03 Ю 3 4000 м дымка 4/0
[Cs]
+1.8 -0.1 87 -3 -3 прохладно 1015.2 994.4
00 26.03 штиль 0 4000 м дымка 5/0
[Ac trans]
+0.1 -1.0 92 -1 -1 по сезону 1014.4 993.5
03 26.03 В 1 4000 м дымка 9/4 600 м
[Sc Ac trans]
+0.4 -0.4 94 -2 -2 по сезону 1014.7 993.8
06 26.03 В 3 10 км 8/3 600 м
[Sc Ac trans Cc]
+2.2 -2.1 73 -2 -1 по сезону 1016.3 995.5 -0.2
09 26.03 СВ 3 20 км 10/6 1000 м
[Sc Ac trans]
+4.7 -3.3 56 +2 +3 по сезону 1017.8 997.1
12 26.03 СВ 3 20 км 9/4 600 м
[Cb cap Ac lent]
+5.6 -2.8 55 +3 +4 по сезону 1018.3 997.7
15 26.03 С 3 20 км 10/0
[Ac und]
+4.1 -2.1 64 +1 +1 прохладно 1019.3 998.6
18 26.03 С 2 20 км 9/0
[Ac trans]
+3.1 -2.0 69 0 0 прохладно 1020.0 999.2 +6.0
21 26.03 СЗ 2 20 км 3/0
[Ac trans]
+1.6 -0.9 83 -2 -2 прохладно 1020.3 999.4
00 27.03 СЗ 3 20 км 10/0
[Ac und]
+0.7 -1.9 83 -4 -4 прохладно 1018.1 997.1
03 27.03 З 6 20 км 10/0
[Ac und]
+1.5 -1.6 80 -5 -5 холодно 1014.0 993.2
06 27.03 СЗ 5 20 км в посл. час снег 10/4 600 м
[Sc Ac As]
+3.0 -0.8 76 -2 -2 по сезону 1011.9 991.2 +0.5 0.0
09 27.03 С 5 20 км 9/9 930 м
[Sc]
+7.7 +0.1 59 +4 +5 по сезону 1011.4 991.1
12 27.03 СЗ 5 20 км 6/6 1000 м
[Cu hum]
+11.7 -2.4 37 +10 +11 тепло 1011.1 991.1
15 27.03 С 5 20 км ясно +11.8 -3.4 34 +10 +10 тепло 1011.6 991.6

 

Местоположение метеостанции Киев (город Киев, Украина): широта 50.40 долгота 30.57 высота над уровнем моря 167 м.

В архиве по умолчанию представлена погода в Киеве за последнюю неделю. Архивные данные за месяц целиком и за предыдущие месяцы, начиная с января 2011 года, Вы можете получить, выбрав интересующий диапазон дат из раскрывающегося списка и нажав кнопку "Ввод!".

Внимание! Время в таблицах - всемирное. Для получения местного времени необходимо прибавить поправку, которая в Киеве равна 2 ч.

Смотрите также архив погоды в соседних городах и на ближайших метеорологических станциях:

Погода в Вышгороде (Киевская область, Украина) (21 км)
Погода в Борисполе (Киевская область, Украина) (29 км)
Погода в Барышевке (Киевская область, Украина) (54 км)
Погода в Фастове (Киевская область, Украина) (58 км)
Погода в Остере (Черниговская область, Украина) (65 км)
Погода в Тетереве (Киевская область, Украина) (78 км)
Погода в Белой Церкви (Киевская область, Украина) (79 км)
Погода в Мироновке (Киевская область, Украина) (87 км)
Погода в Яготине (Киевская область, Украина) (90 км)
Погода в Чернобыле (Киевская область, Украина) (101 км)

Пояснения к столбцам:

Ветер - указаны скорость ветра в м/с - средняя за 10 мин, порывы в срок и между сроками (в фигурных скобках) и направление, откуда дует ветер: С - северный, СВ - северо-восточный, В - восточный, ЮВ - юго-восточный, Ю - южный, ЮЗ - юго-западный, З - западный, СЗ - северо-западный.
Видимость - горизонтальная дальность видимости в метрах или километрах. При видимости от 1 до 10 км при отсутствии осадков обычно наблюдается дымка, при ухудшении видимости до 1 км и менее - туман. В сухую погоду видимость может ухудшаться дымом, пылью или мглою.
Явления - указаны атмосферные явления, наблюдавшиеся в срок или в последний час перед сроком; фигурными скобками обозначены явления, наблюдавшиеся между сроками (за 1-3 часа до срока); квадратными скобками обозначены град или гололедные отложения с указанием их диаметра в мм.
Облачность - указаны через наклонную черту общая и нижняя облачность в баллах и высота нижней границы облаков в метрах; квадратными скобками обозначены формы облаков: Ci - перистые, Cs - перисто-слоистые, Cc - перисто-кучевые, Ac - высококучевые, As - высокослоистые, Sc - слоисто-кучевые, Ns - слоисто-дождевые, Cu - кучевые, Cb - кучево-дождевые. Подробнее классификацию облаков см. в Атласе облаков (PDF).
T - Температура воздуха - температура, измеренная на высоте 2 м над землей.
Td - Температура точки росы - температура, при понижении до которой содержащийся в воздухе водяной пар достигнет насыщения.
f - Относительная влажность воздуха - влажноcть воздуха, измеренная на высоте 2 м над землей.
Te - Эффективная температура - температура, которую ощущает одетый по сезону человек в тени. Характеристика душности погоды. При расчете учитывается влияние влажности воздуха и скорости ветра на теплоощущения человека.
Tes - Эффективная температура на солнце - температура, которую ощущает человек, с поправкой на солнечный нагрев. Характеристика знойности погоды. Зависит от высоты солнца над горизонтом, облачности и скорости ветра. Ночью, в пасмурную погоду, а также при ветре 12 м/с и более поправка равна нулю.
P - Атмосферное давление - приведенное к уровню моря атмосферное давление.
Po - Атмосферное давление - измеренное на уровне метеостанции атмосферное давление.
Tmin - Минимальная температура - минимум температуры воздуха на высоте 2 м над землей.
Tmax - Максимальная температура - максимум температуры воздуха на высоте 2 м над землей.
R - Количество осадков - Количество выпавших осадков, мм. При наведении курсора мыши на число - период времени, за который выпало указанное количество осадков.
S - Снежный покров - Высота снежного покрова, см. При наведении курсора мыши на число - состояние снежного покрова и степень покрытия местности в баллах.